Location: Newark
(30.9333°N, 122.8333°E)
Time: 09:15:26
(UTC+00:00)

LightSail 2 - Visible Passes

Search period start: 20 January 2020 00:00
Search period end: 30 January 2020 00:00
Orbit: 703 x 720 km, 24.0° (Epoch: 20 January)

Date Brightness Start Highest point End Pass type
(mag) Time Alt. Az. Time Alt. Az. Time Alt. Az.
20 Jan 6.3 10:20:10 10° SW 10:24:48 33° S 10:28:00 17° ESE visible
20 Jan 7.4 12:05:10 10° WSW 12:06:57 20° WSW 12:06:57 20° WSW visible
21 Jan 6.0 11:06:48 10° WSW 11:11:37 39° S 11:12:12 37° SSE visible
22 Jan 6.2 10:08:30 10° WSW 10:13:16 37° S 10:17:27 13° ESE visible
22 Jan 7.0 11:53:45 10° WSW 11:56:24 25° SW 11:56:24 25° SW visible
23 Jan 6.2 10:55:19 10° WSW 11:00:04 37° S 11:01:41 29° SSE visible
24 Jan 6.2 09:56:55 10° WSW 10:01:42 38° S 10:06:29 10° ESE visible
24 Jan 6.8 11:42:26 10° WSW 11:45:57 26° SSW 11:45:57 26° SSW visible
25 Jan 6.5 10:43:54 10° WSW 10:48:28 32° S 10:51:19 19° SE visible
25 Jan 8.1 12:30:13 10° WSW 12:30:16 10° WSW 12:30:16 10° WSW visible
26 Jan 6.5 09:45:25 10° WSW 09:50:06 35° S 09:54:48 10° ESE visible
26 Jan 7.0 11:31:19 10° WSW 11:35:09 21° SSW 11:35:41 21° S visible
27 Jan 6.9 10:32:36 10° WSW 10:36:49 25° SSW 10:41:03 10° SE visible
28 Jan 7.5 11:20:39 10° SW 11:23:26 14° SSW 11:25:42 11° S visible
29 Jan 7.4 10:21:34 10° WSW 10:25:06 19° SSW 10:28:38 10° SSE visible
